Change the Weather History Date:

Thursday, November 8, 2012

  Actual Average Record
Temperature  
Mean Temperature 63 °F -  
Max Temperature 82 °F 63 °F 86 °F (2006)
Min Temperature 44 °F 33 °F 21 °F (1991)
Degree Days  
Heating Degree Days 2    
Growing Degree Days 13 (Base 50)    
Moisture  
Dew Point 31 °F    
Average Humidity 40    
Maximum Humidity 66    
Minimum Humidity 10    
Precipitation  
Precipitation 0.00 in - - ()
Sea Level Pressure  
Sea Level Pressure 29.85 in    
Wind  
Wind Speed 10 mph (SW)    
Max Wind Speed 17 mph    
Max Gust Speed 18 mph    
Visibility 10 miles    
Events      
Averages and records for this station are not official NWS values.
T = Trace of Precipitation, MM = Missing Value Source: NWS Daily Summary

Daily Weather History Graph

Daily Weather History Graph

Search for Another Location

Airport or City:

Trip Planner

Search our weather history database for the weather conditions in past years. The results will help you decide how hot, cold, wet, or windy it might be!

Date:

Astronomy

Nov. 08, 2012 Rise Set
Actual Time 7:13 AM CST 5:39 PM CST
Civil Twilight 6:46 AM CST 6:06 PM CST
Nautical Twilight 6:15 AM CST 6:37 PM CST
Astronomical Twilight 5:45 AM CST 7:07 PM CST
Moon 1:20 AM CST (11/8) 2:12 PM CST (11/8)
Length of Visible Light 11h 19m
Length of Day
10h 25m
Waning Crescent, 32% of the Moon is Illuminated
Nov 8
Waning Crescent
Nov 13
New
Nov 20
First Quarter
Nov 28
Full
Dec 6
Last Quarter

Hourly Weather History & Observations

Time (CST) Temp. Windchill Dew Point Humidity Pressure Visibility Wind Dir Wind Speed Gust Speed Precip Events Conditions
12:15 AM 53.6 °F - 37.4 °F 54% 29.91 in 10.0 mi SSE 11.5 mph - N/A   Clear
12:35 AM 53.6 °F - 37.4 °F 54% 29.91 in 10.0 mi SSE 11.5 mph - N/A   Clear
12:55 AM 53.6 °F - 37.4 °F 54% 29.90 in 10.0 mi South 11.5 mph - N/A   Clear
1:15 AM 55.4 °F - 39.2 °F 54% 29.90 in 10.0 mi South 12.7 mph - N/A   Clear
1:55 AM 53.6 °F - 39.2 °F 58% 29.88 in 10.0 mi SSE 12.7 mph - N/A   Clear
2:15 AM 53.6 °F - 39.2 °F 58% 29.88 in 10.0 mi SSE 12.7 mph - N/A   Clear
2:35 AM 51.8 °F - 39.2 °F 62% 29.87 in 10.0 mi SSE 11.5 mph - N/A   Clear
2:55 AM 51.8 °F - 39.2 °F 62% 29.86 in 10.0 mi SSE 12.7 mph - N/A   Clear
3:15 AM 51.8 °F - 39.2 °F 62% 29.86 in 10.0 mi SSE 13.8 mph - N/A   Clear
3:35 AM 53.6 °F - 41.0 °F 62% 29.85 in 10.0 mi South 15.0 mph - N/A   Clear
3:55 AM 53.6 °F - 41.0 °F 62% 29.85 in 10.0 mi South 17.3 mph - N/A   Clear
4:15 AM 53.6 °F - 41.0 °F 62% 29.85 in 10.0 mi South 15.0 mph - N/A   Clear
4:35 AM 53.6 °F - 41.0 °F 62% 29.85 in 10.0 mi South 12.7 mph - N/A   Clear
4:55 AM 51.8 °F - 39.2 °F 62% 29.85 in 10.0 mi South 9.2 mph - N/A   Clear
5:15 AM 50.0 °F - 37.4 °F 62% 29.85 in 10.0 mi SSW 6.9 mph - N/A   Clear
5:35 AM 50.0 °F - 37.4 °F 62% 29.85 in 10.0 mi SSW 9.2 mph - N/A   Clear
5:55 AM 50.0 °F - 37.4 °F 62% 29.85 in 10.0 mi SSW 10.4 mph - N/A   Clear
6:15 AM 46.4 °F 41.9 °F 35.6 °F 66% 29.85 in 10.0 mi SSW 9.2 mph - N/A   Clear
6:35 AM 44.6 °F 39.2 °F 33.8 °F 66% 29.85 in 10.0 mi SSW 10.4 mph - N/A   Clear
6:55 AM 44.6 °F 39.7 °F 33.8 °F 66% 29.86 in 10.0 mi SSW 9.2 mph - N/A   Clear
7:15 AM 44.6 °F 40.2 °F 32.0 °F 61% 29.86 in 10.0 mi SW 8.1 mph - N/A   Clear
7:35 AM 44.6 °F 39.7 °F 32.0 °F 61% 29.87 in 10.0 mi SW 9.2 mph - N/A   Clear
7:55 AM 48.2 °F - 32.0 °F 54% 29.87 in 10.0 mi SW 10.4 mph - N/A   Clear
8:15 AM 50.0 °F - 32.0 °F 50% 29.88 in 10.0 mi SW 10.4 mph - N/A   Clear
8:35 AM 51.8 °F - 30.2 °F 44% 29.88 in 10.0 mi WSW 12.7 mph - N/A   Clear
8:55 AM 55.4 °F - 28.4 °F 36% 29.88 in 10.0 mi WSW 12.7 mph - N/A   Clear
9:15 AM 57.2 °F - 28.4 °F 33% 29.88 in 10.0 mi WSW 9.2 mph - N/A   Clear
9:35 AM 60.8 °F - 28.4 °F 29% 29.88 in 10.0 mi WSW 10.4 mph - N/A   Clear
9:55 AM 64.4 °F - 28.4 °F 26% 29.89 in 10.0 mi West 11.5 mph - N/A   Clear
10:15 AM 68.0 °F - 26.6 °F 21% 29.89 in 10.0 mi West 9.2 mph - N/A   Clear
10:35 AM 69.8 °F - 26.6 °F 20% 29.88 in 10.0 mi West 8.1 mph - N/A   Clear
10:55 AM 69.8 °F - 24.8 °F 18% 29.88 in 10.0 mi West 8.1 mph - N/A   Clear
11:15 AM 73.4 °F - 24.8 °F 16% 29.87 in 10.0 mi West 10.4 mph 17.3 mph N/A   Clear
11:35 AM 77.0 °F - 23.0 °F 13% 29.87 in 10.0 mi West 12.7 mph - N/A   Clear
11:55 AM 77.0 °F - 24.8 °F 14% 29.87 in 10.0 mi West 13.8 mph - N/A   Clear
12:15 PM 77.0 °F - 24.8 °F 14% 29.86 in 10.0 mi WSW 9.2 mph - N/A   Clear
12:35 PM 78.8 °F - 24.8 °F 14% 29.85 in 10.0 mi West 10.4 mph - N/A   Clear
12:55 PM 78.8 °F - 24.8 °F 14% 29.84 in 10.0 mi West 9.2 mph - N/A   Clear
1:15 PM 80.6 °F - 24.8 °F 13% 29.82 in 10.0 mi WSW 9.2 mph 18.4 mph N/A   Clear
1:35 PM 80.6 °F - 24.8 °F 13% 29.82 in 10.0 mi West 15.0 mph - N/A   Clear
1:55 PM 80.6 °F - 24.8 °F 13% 29.81 in 10.0 mi West 9.2 mph - N/A   Clear
2:15 PM 80.6 °F - 24.8 °F 13% 29.80 in 10.0 mi WSW 8.1 mph - N/A   Clear
2:35 PM 82.4 °F - 24.8 °F 12% 29.81 in 10.0 mi West 10.4 mph 16.1 mph N/A   Clear
2:55 PM 82.4 °F - 23.0 °F 11% 29.81 in 10.0 mi WSW 11.5 mph 18.4 mph N/A   Clear
3:15 PM 82.4 °F - 23.0 °F 11% 29.81 in 10.0 mi West 11.5 mph 17.3 mph N/A   Clear
3:35 PM 82.4 °F - 21.2 °F 10% 29.81 in 10.0 mi West 11.5 mph - N/A   Clear
3:55 PM 80.6 °F - 21.2 °F 11% 29.81 in 10.0 mi WSW 10.4 mph - N/A   Clear
4:15 PM 78.8 °F - 26.6 °F 15% 29.81 in 10.0 mi NNW 9.2 mph - N/A   Clear
4:35 PM 75.2 °F - 28.4 °F 18% 29.82 in 10.0 mi NNW 8.1 mph - N/A   Clear
4:55 PM 73.4 °F - 28.4 °F 19% 29.82 in 10.0 mi North 4.6 mph - N/A   Clear
5:15 PM 71.6 °F - 30.2 °F 22% 29.83 in 10.0 mi Calm Calm - N/A   Clear
5:35 PM 68.0 °F - 32.0 °F 26% 29.83 in 10.0 mi North 6.9 mph - N/A   Clear
5:55 PM 62.6 °F - 32.0 °F 32% 29.83 in 10.0 mi NNE 6.9 mph - N/A   Clear
6:15 PM 62.6 °F - 32.0 °F 32% 29.84 in 10.0 mi NNE 8.1 mph - N/A   Clear
6:35 PM 60.8 °F - 32.0 °F 34% 29.84 in 10.0 mi NNE 8.1 mph - N/A   Clear
6:55 PM 59.0 °F - 32.0 °F 36% 29.85 in 10.0 mi NNE 8.1 mph - N/A   Clear
7:15 PM 57.2 °F - 32.0 °F 38% 29.85 in 10.0 mi NNE 8.1 mph - N/A   Clear
7:35 PM 53.6 °F - 32.0 °F 44% 29.85 in 10.0 mi NNE 4.6 mph - N/A   Clear
7:55 PM 51.8 °F - 30.2 °F 44% 29.85 in 10.0 mi NNE 4.6 mph - N/A   Clear
8:15 PM 53.6 °F - 32.0 °F 44% 29.85 in 10.0 mi ENE 6.9 mph - N/A   Clear
8:35 PM 53.6 °F - 33.8 °F 47% 29.85 in 10.0 mi ENE 6.9 mph - N/A   Clear
8:55 PM 53.6 °F - 33.8 °F 47% 29.85 in 10.0 mi ENE 6.9 mph - N/A   Clear
9:15 PM 53.6 °F - 33.8 °F 47% 29.84 in 10.0 mi East 5.8 mph - N/A   Clear
9:35 PM 51.8 °F - 33.8 °F 50% 29.85 in 10.0 mi East 5.8 mph - N/A   Clear
9:55 PM 51.8 °F - 33.8 °F 50% 29.84 in 10.0 mi ESE 3.5 mph - N/A   Clear
10:15 PM 51.8 °F - 32.0 °F 47% 29.84 in 10.0 mi ESE 4.6 mph - N/A   Clear
10:35 PM 53.6 °F - 33.8 °F 47% 29.83 in 10.0 mi ESE 6.9 mph - N/A   Clear
10:55 PM 51.8 °F - 32.0 °F 47% 29.83 in 10.0 mi SE 5.8 mph - N/A   Clear
11:15 PM 46.4 °F 43.5 °F 32.0 °F 57% 29.82 in 10.0 mi SSE 5.8 mph - N/A   Clear
11:35 PM 44.6 °F 40.2 °F 30.2 °F 57% 29.82 in 10.0 mi SSE 8.1 mph - N/A   Clear
11:55 PM 46.4 °F 42.9 °F 32.0 °F 57% 29.82 in 10.0 mi South 6.9 mph - N/A   Clear